Aérodrome :
LOGIN :

S'inscrire | Disclaimer

   EN    FR    IT 

 










Légende :    VFR   VFR Marginal   IFR   IFR Intensif   IFR Très Intensif
Visi : 
Plafond : 
>= 8 km
>= 3000ft
5 à 8 km
1000 à 3000 ft
1500m à 5 km
500 à 1000 ft
800 à 1500m
200 à 500 ft
< 800m
< 200 ft
Symboles :   Orages  Brouillard  Fortes neiges  Fortes précipitations  Vent > 20 kt
SIGMETs :   Divers  Orages  Givrage  Turbulence  Onde Orograph.  Cendres Volcan.






- Altitude de l'aérodrome : 204 ft
- Code IATA : AGF


LFBA - Agen

DERNIER METAR :
  • 160930Z AUTO 01005KT 320V100 CAVOK 11/M00 Q1021 NOSIG

METARs EXPIRÉS :
  • 160900Z AUTO 35006KT 300V020 CAVOK 10/M02 Q1021 NOSIG
  • 160830Z AUTO 35006KT 310V040 CAVOK 09/M02 Q1021 NOSIG
  • 160800Z AUTO 36007KT 330V040 CAVOK 08/M02 Q1021 NOSIG
  • 160730Z AUTO 30004KT 260V360 CAVOK 06/M01 Q1021 NOSIG
  • 160700Z AUTO 30005KT CAVOK 05/M02 Q1021 BECMG 36010KT

TAF TAF LFBA
Valide du 16 à 09h jusqu'au 16 à 18h UTC


160800Z 1609/1618 36010KT CAVOK



MET'MAP, la Météo Aéronautique d'un coup d'oeil ! - Copyright ORBIFLY Décembre 2007 - Disclaimer

ORBIFLY MET'MAP TEAM :

Programmation & Développement : Alexandra Zaïnal
Sur une idée originale de : Baudouin d'Aumeries
Assistance à la programmation : Marc-Olivier Méhu
Soutien technique & logistique : Manuel Goepfert

Contact : metmap@orbifly.com




SOURCES & CREDITS :

   NOAA